Weather History for KALX - April, 2014

Change the Weather History Date:

Friday, April 11, 2014

  Actual Average (KAUO) Record (KAUO)
Temperature  
Mean Temperature 62 °F -  
Max Temperature 78 °F - 87 °F (1965)
Min Temperature 45 °F - 27 °F (1973)
Degree Days  
Heating Degree Days 4    
Month to date heating degree days  
Since 1 July heating degree days  
Cooling Degree Days 0    
Month to date cooling degree days  
Year to date cooling degree days  
Growing Degree Days 12 (Base 50)    
Moisture  
Dew Point 46 °F    
Average Humidity 59    
Maximum Humidity 84    
Minimum Humidity 23    
Precipitation  
Precipitation 0.00 in - 8.13 in (2005)
Month to date precipitation  
Year to date precipitation  
Sea Level Pressure  
Sea Level Pressure 30.21 in    
Wind  
Wind Speed 3 mph (SSW)    
Max Wind Speed 10 mph    
Max Gust Speed 17 mph    
Visibility 10 miles    
Events      
T = Trace of Precipitation, MM = Missing Value Source: NWS Daily Summary

Daily Weather History Graph

Daily Weather History Graph

Search for Another Location

Airport or City:

Trip Planner

Search our weather history database for the weather conditions in past years. The results will help you decide how hot, cold, wet, or windy it might be!

Date:

Astronomy

Apr. 11, 2014 Rise Set
Actual Time 6:18 AM CDT 7:11 PM CDT
Civil Twilight 5:53 AM CDT 7:36 PM CDT
Nautical Twilight 5:24 AM CDT 8:06 PM CDT
Astronomical Twilight 4:53 AM CDT 8:36 PM CDT
Moon 4:01 PM CDT (4/11) 4:02 AM CDT (4/11)
Length of Visible Light 13h 42m
Length of Day
12h 52m
Waxing Gibbous, 87% of the Moon is Illuminated
Apr 11
Waxing Gibbous
Apr 15
Full
Apr 22
Last Quarter
Apr 29
New
May 6
First Quarter

Hourly Weather History & Observations

Time (CDT) Temp. Dew Point Humidity Pressure Visibility Wind Dir Wind Speed Gust Speed Precip Events Conditions
12:15 AM 59.2 °F 42.1 °F 53% 30.22 in 10.0 mi SW 3.5 mph - N/A   Clear
12:35 AM 58.1 °F 41.2 °F 53% 30.22 in 10.0 mi SW 3.5 mph - N/A   Clear
12:55 AM 57.7 °F 41.7 °F 55% 30.22 in 10.0 mi South 3.5 mph - N/A   Clear
1:15 AM 55.4 °F 45.1 °F 68% 30.22 in 10.0 mi Calm Calm - N/A   Clear
1:35 AM 55.4 °F 46.6 °F 72% 30.23 in 10.0 mi Calm Calm - N/A   Clear
1:55 AM 52.7 °F 44.2 °F 73% 30.23 in 10.0 mi Calm Calm - N/A   Clear
2:15 AM 55.4 °F 47.5 °F 75% 30.23 in 10.0 mi Calm Calm - N/A   Clear
2:35 AM 50.2 °F 43.5 °F 78% 30.22 in 10.0 mi Calm Calm - N/A   Clear
2:55 AM 50.2 °F 44.1 °F 79% 30.22 in 10.0 mi Calm Calm - N/A   Clear
3:15 AM 50.2 °F 43.3 °F 77% 30.21 in 10.0 mi Calm Calm - N/A   Clear
3:35 AM 50.5 °F 43.9 °F 78% 30.21 in 10.0 mi Calm Calm - N/A   Clear
3:55 AM 50.2 °F 44.8 °F 82% 30.21 in 10.0 mi Calm Calm - N/A   Clear
4:15 AM 50.2 °F 44.8 °F 82% 30.21 in 10.0 mi Calm Calm - N/A   Clear
4:35 AM 49.5 °F 44.4 °F 83% 30.20 in 10.0 mi Calm Calm - N/A   Clear
4:55 AM 49.5 °F 44.8 °F 84% 30.21 in 10.0 mi Calm Calm - N/A   Clear
5:15 AM 47.7 °F 42.8 °F 83% 30.21 in 10.0 mi Calm Calm - N/A   Clear
5:35 AM 50.2 °F 45.5 °F 84% 30.23 in 10.0 mi Calm Calm - N/A   Clear
5:55 AM 47.7 °F 43.0 °F 84% 30.23 in 10.0 mi Calm Calm - N/A   Clear
6:15 AM 45.7 °F 41.0 °F 84% 30.23 in 10.0 mi Calm Calm - N/A   Clear
6:35 AM 45.1 °F 40.3 °F 83% 30.24 in 10.0 mi Calm Calm - N/A   Clear
6:55 AM 47.7 °F 43.2 °F 84% 30.25 in 10.0 mi Calm Calm - N/A   Clear
7:15 AM 50.2 °F 45.1 °F 83% 30.26 in 10.0 mi Calm Calm - N/A   Clear
7:35 AM 50.2 °F 45.1 °F 83% 30.26 in 10.0 mi Calm Calm - N/A   Clear
7:55 AM 52.7 °F 47.3 °F 82% 30.26 in 10.0 mi Calm Calm - N/A   Clear
8:15 AM 55.4 °F 48.6 °F 78% 30.27 in 10.0 mi Calm Calm - N/A   Clear
8:35 AM 57.7 °F 49.3 °F 73% 30.27 in 10.0 mi Calm Calm - N/A   Clear
9:15 AM 62.1 °F 51.4 °F 68% 30.28 in 10.0 mi Calm Calm - N/A   Clear
9:35 AM 63.5 °F 50.9 °F 63% 30.28 in 10.0 mi SW 5.8 mph - N/A   Clear
9:55 AM 65.5 °F 51.3 °F 60% 30.28 in 10.0 mi SW 5.8 mph - N/A   Scattered Clouds
10:15 AM 66.0 °F 49.1 °F 54% 30.28 in 10.0 mi SW 8.1 mph - N/A   Mostly Cloudy
10:35 AM 70.7 °F 50.0 °F 48% 30.28 in 10.0 mi WSW 6.9 mph - N/A   Scattered Clouds
10:55 AM 70.7 °F 49.6 °F 47% 30.28 in 10.0 mi South 5.8 mph - N/A   Scattered Clouds
11:15 AM 70.7 °F 48.9 °F 46% 30.27 in 10.0 mi SW 3.5 mph - N/A   Scattered Clouds
11:35 AM 70.7 °F 44.6 °F 39% 30.26 in 10.0 mi SW 9.2 mph - N/A   Clear
11:55 AM 70.7 °F 45.0 °F 40% 30.26 in 10.0 mi South 6.9 mph - N/A   Clear
12:15 PM 70.9 °F 45.1 °F 40% 30.25 in 10.0 mi SSW 5.8 mph - N/A   Clear
12:35 PM 71.8 °F 44.4 °F 37% 30.24 in 10.0 mi WSW 6.9 mph - N/A   Clear
12:55 PM 75.6 °F 44.6 °F 33% 30.23 in 10.0 mi SW 8.1 mph - N/A   Clear
1:15 PM 75.6 °F 45.5 °F 34% 30.23 in 10.0 mi SSW 8.1 mph - N/A   Clear
1:35 PM 75.6 °F 44.6 °F 33% 30.22 in 10.0 mi SSW 4.6 mph 16.1 mph N/A   Clear
1:55 PM 75.6 °F 43.5 °F 32% 30.21 in 10.0 mi SW 6.9 mph - N/A   Clear
2:15 PM 75.6 °F 44.6 °F 33% 30.20 in 10.0 mi ESE 3.5 mph - N/A   Clear
2:35 PM 75.6 °F 41.9 °F 30% 30.19 in 10.0 mi WSW 10.4 mph 17.3 mph N/A   Clear
2:55 PM 75.6 °F 41.5 °F 29% 30.18 in 10.0 mi SW 9.2 mph - N/A   Clear
3:15 PM 76.5 °F 41.7 °F 29% 30.17 in 10.0 mi SSW 8.1 mph - N/A   Clear
3:35 PM 76.8 °F 39.7 °F 26% 30.16 in 10.0 mi South 8.1 mph - N/A   Clear
3:55 PM 78.1 °F 37.6 °F 23% 30.16 in 10.0 mi South 6.9 mph - N/A   Clear
4:15 PM 78.1 °F 39.7 °F 25% 30.16 in 10.0 mi SSW 9.2 mph - N/A   Clear
4:35 PM 77.2 °F 38.3 °F 25% 30.16 in 10.0 mi South 5.8 mph - N/A   Clear
4:55 PM 78.1 °F 37.6 °F 23% 30.16 in 10.0 mi SSW 8.1 mph - N/A   Clear
5:15 PM 76.8 °F 37.0 °F 24% 30.15 in 10.0 mi WSW 9.2 mph - N/A   Clear
5:35 PM 76.1 °F 37.8 °F 25% 30.15 in 10.0 mi WSW 6.9 mph - N/A   Clear
5:55 PM 75.6 °F 40.1 °F 28% 30.15 in 10.0 mi SW 9.2 mph - N/A   Clear
6:15 PM 75.6 °F 39.7 °F 28% 30.15 in 10.0 mi SW 5.8 mph - N/A   Clear
6:35 PM 75.6 °F 43.9 °F 32% 30.14 in 10.0 mi SW 4.6 mph - N/A   Clear
6:55 PM 73.4 °F 45.0 °F 36% 30.14 in 10.0 mi Calm Calm - N/A   Clear
7:15 PM 70.7 °F 50.9 °F 49% 30.15 in 10.0 mi Calm Calm - N/A   Clear
7:35 PM 67.1 °F 54.0 °F 63% 30.15 in 10.0 mi Calm Calm - N/A   Clear
7:55 PM 65.5 °F 55.4 °F 70% 30.16 in 10.0 mi Calm Calm - N/A   Clear
8:15 PM 63.1 °F 52.3 °F 68% 30.17 in 10.0 mi Calm Calm - N/A   Clear
8:35 PM 62.1 °F 54.7 °F 77% 30.17 in 10.0 mi Calm Calm - N/A   Clear
8:55 PM 61.7 °F 51.8 °F 70% 30.18 in 10.0 mi Calm Calm - N/A   Clear
9:15 PM 60.3 °F 51.4 °F 73% 30.18 in 10.0 mi Calm Calm - N/A   Clear
9:35 PM 58.5 °F 50.2 °F 74% 30.19 in 10.0 mi Calm Calm - N/A   Clear
9:55 PM 57.7 °F 49.8 °F 75% 30.19 in 10.0 mi Calm Calm - N/A   Clear
10:15 PM 57.9 °F 50.2 °F 75% 30.19 in 10.0 mi Calm Calm - N/A   Clear
10:35 PM 57.7 °F 50.9 °F 78% 30.19 in 10.0 mi Calm Calm - N/A   Clear
10:55 PM 57.7 °F 50.2 °F 76% 30.19 in 10.0 mi Calm Calm - N/A   Clear
11:15 PM 57.6 °F 50.9 °F 78% 30.19 in 10.0 mi Calm Calm - N/A   Clear
11:35 PM 57.7 °F 51.1 °F 78% 30.19 in 10.0 mi Calm Calm - N/A   Clear
11:55 PM 57.7 °F 50.4 °F 76% 30.19 in 10.0 mi Calm Calm - N/A   Scattered Clouds